Location: eljas
(40.1958°N, 6.8661°W)
Time: 16:16:16
(UTC+02:00)

ISS - All Passes

Search period start: 31 August 2016 00:00
Search period end: 10 September 2016 00:00
Orbit: 402 x 406 km, 51.6° (Epoch: 30 August)

Date Brightness Start Highest point End Pass type
(mag) Time Alt. Az. Time Alt. Az. Time Alt. Az.
31 Aug - 08:48:37 10° SSW 08:51:41 37° SE 08:54:45 10° ENE daylight
31 Aug - 10:25:19 10° W 10:28:11 28° NNW 10:31:05 10° NE daylight
31 Aug - 12:04:09 10° NNW 12:05:30 12° N 12:06:53 10° NNE daylight
31 Aug - 13:41:10 10° NNW 13:43:04 14° NNE 13:44:59 10° NE daylight
31 Aug - 15:16:57 10° NW 15:20:09 49° NNE 15:23:21 10° ESE daylight
31 Aug - 16:54:05 10° W 16:56:22 17° SW 16:58:37 10° S daylight
01 Sep - 07:56:58 10° S 07:59:24 19° SE 08:01:50 10° E daylight
01 Sep - 09:32:29 10° WSW 09:35:38 45° NNW 09:38:49 10° NE daylight
01 Sep - 11:10:55 10° NW 11:12:45 14° NNW 11:14:35 10° NNE daylight
01 Sep - 12:48:53 10° NNW 12:50:20 12° N 12:51:46 10° NE daylight
01 Sep - 14:24:40 10° NW 14:27:37 29° NNE 14:30:33 10° E daylight
01 Sep - 16:01:05 10° WNW 16:04:06 33° SW 16:07:05 10° SSE daylight
02 Sep - 08:39:53 10° SW 08:43:09 84° NW 08:46:27 10° NE daylight
02 Sep - 10:17:43 10° WNW 10:20:02 18° NNW 10:22:22 10° NNE daylight
02 Sep - 11:56:23 10° NNW 11:57:33 11° N 11:58:42 10° NNE daylight
02 Sep - 13:32:26 10° NNW 13:35:00 20° NNE 13:37:32 10° ENE daylight
02 Sep - 15:08:28 10° WNW 15:11:44 69° SW 15:14:59 10° SE daylight
03 Sep - 07:47:37 10° SSW 07:50:45 47° SE 07:53:56 10° ENE daylight
03 Sep - 09:24:37 10° W 09:27:22 24° NNW 09:30:09 10° NNE daylight
03 Sep - 11:03:30 10° NNW 11:04:45 12° N 11:06:00 10° NNE daylight
03 Sep - 12:40:13 10° NNW 12:42:18 15° NNE 12:44:23 10° NE daylight
03 Sep - 14:16:02 10° NW 14:19:18 60° NE 14:22:32 10° ESE daylight
03 Sep - 15:53:36 10° W 15:55:24 14° SW 15:57:13 10° SSW daylight
04 Sep - 06:55:45 10° S 06:58:27 24° SE 07:01:09 10° ENE visible
04 Sep - 08:31:42 10° W 08:34:47 37° NNW 08:37:53 10° NE daylight
04 Sep - 10:10:18 10° NW 10:11:58 13° N 10:13:38 10° NNE daylight
04 Sep - 11:47:58 10° NNW 11:49:33 13° N 11:51:08 10° NE daylight
04 Sep - 13:23:43 10° NW 13:26:46 34° NNE 13:29:48 10° E daylight
04 Sep - 15:00:19 10° WNW 15:03:09 27° SW 15:05:58 10° SSE daylight
05 Sep - 06:04:44 10° SSE 06:06:12 12° SE 06:07:40 10° ESE visible
05 Sep - 07:39:00 10° WSW 07:42:16 68° NW 07:45:33 10° NE daylight
05 Sep - 09:17:04 10° WNW 09:19:13 16° NNW 09:21:23 10° NNE daylight
05 Sep - 10:55:33 10° NNW 10:56:45 12° N 10:57:58 10° NNE daylight
05 Sep - 12:31:28 10° NNW 12:34:09 23° NNE 12:36:50 10° ENE daylight
05 Sep - 14:07:36 10° WNW 14:10:49 54° SW 14:14:01 10° SE daylight
06 Sep - 06:46:36 10° SW 06:49:50 61° SE 06:53:04 10° ENE visible
06 Sep - 08:23:54 10° WNW 08:26:31 22° NNW 08:29:09 10° NNE daylight
06 Sep - 10:02:46 10° NNW 10:03:56 11° N 10:05:07 10° NNE daylight
06 Sep - 11:39:14 10° NNW 11:41:28 17° NNE 11:43:42 10° ENE daylight
06 Sep - 13:15:06 10° NW 13:18:23 75° NE 13:21:40 10° ESE daylight
06 Sep - 14:53:20 10° WSW 14:54:25 11° SW 14:55:28 10° SSW daylight
07 Sep - 05:54:34 10° SSW 05:57:28 30° SE 06:00:23 10° ENE visible
07 Sep - 07:30:54 10° W 07:33:54 32° NNW 07:36:54 10° NE visible
07 Sep - 09:09:38 10° NW 09:11:09 12° N 09:12:39 10° NNE daylight
07 Sep - 10:46:59 10° NNW 10:48:43 13° NNE 10:50:28 10° NE daylight
07 Sep - 12:22:43 10° NW 12:25:52 40° NNE 12:29:00 10° ESE daylight
07 Sep - 13:59:34 10° W 14:02:10 22° SW 14:04:45 10° S daylight
08 Sep - 05:03:09 10° S 05:05:11 16° SE 05:07:14 10° E visible
08 Sep - 06:38:07 10° WSW 06:41:20 55° NNW 06:44:34 10° NE visible
08 Sep - 08:16:23 10° NW 08:18:21 15° NNW 08:20:22 10° NNE daylight
08 Sep - 09:54:38 10° NNW 09:55:56 12° N 09:57:14 10° NNE daylight
08 Sep - 11:30:26 10° NNW 11:33:16 26° NNE 11:36:06 10° E daylight
08 Sep - 13:06:42 10° WNW 13:09:50 42° SW 13:12:57 10° SSE daylight
09 Sep - 05:45:36 10° SW 05:48:51 77° SE 05:52:08 10° NE visible
09 Sep - 07:23:10 10° WNW 07:25:39 19° NNW 07:28:07 10° NNE visible
09 Sep - 09:01:58 10° NNW 09:03:06 11° N 09:04:15 10° NNE daylight
09 Sep - 10:38:12 10° NNW 10:40:36 18° NNE 10:42:59 10° ENE daylight
09 Sep - 12:14:08 10° NW 12:17:25 87° SW 12:20:42 10° SE daylight
